UmKA 1 (RS40S)
1 57172U 23091G   26015.81215293  .00003439  00000-0  16892-3 0  9990
2 57172  97.5295  75.1328 0011981 293.4536  66.5438 15.18689628140864
CubeBel-2 (EU11S)
1 57175U 23091K   26015.85151510  .00007270  00000-0  29357-3 0  9995
2 57175  97.5292  77.9774 0009461 295.3223  64.7034 15.25042110141054
RS-38S
1 57189U 23091Z   26015.84647683  .00009187  00000-0  31334-3 0  9997
2 57189  97.5318  82.7195 0006934 250.7212 109.3278 15.30561129141344
SONATE-2
1 59112U 24043Q   26015.82512960  .00018546  00000-0  36577-3 0  9993
2 59112  97.5333 158.4072 0008955  44.3715 315.8251 15.47202456104240
MO-122
1 60209U 24125G   26015.02632653  .00019673  00000-0  36705-3 0  9992
2 60209  97.2501 230.4755 0015642  63.5322 296.7531 15.48693269 85759
GRBBeta
1 60237U 24128C   26015.43802721  .00002350  00000-0  17405-3 0  9996
2 60237  61.9907  31.6338 0054989 103.0093 257.7146 15.05115663 83261
Curium One
1 60242U 24128H   26015.38651896  .00004414  00000-0  27791-3 0  9993
2 60242  61.9801  25.8639 0054922  99.5382 261.1924 15.09551438 83368
ROBUSTA-3A
1 60243U 24128J   26015.60417028  .00004067  00000-0  26205-3 0  9999
2 60243  61.9876  26.7864 0055127  97.0398 263.6969 15.08859091 83371
CatSat
1 60246U 24125J   26015.09683208  .00022188  00000-0  48920-3 0  9999
2 60246  97.2282 227.1819 0032790  27.9371 332.3628 15.43339110 83660
HYPERVIEW-1G (RS66S)
1 61772U 24199AP  26015.90637152  .00030212  00000-0  51754-3 0  9998
2 61772  97.3181 250.8448 0011457 107.9347 252.3156 15.51105181110907
AO-123
1 61781U 24199AY  26015.89042065  .00006051  00000-0  19299-3 0  9991
2 61781  97.3229 245.9813 0015583 128.9951 231.2681 15.32766940110576
ZIMSAT 2
1 61783U 24199BA  26009.19142266  .00678273  19479-3  17950-2 0  9998
2 61783  97.2964 248.8590 0008008 103.0885 257.1284 15.94647359113345
HADES-R (SO-124)
1 62690U 25009CK  26015.17815421  .00247000  00000-0  15370-2 0  9993
2 62690  97.3781 104.4554 0004808 295.2559  64.8208 15.76242232 56014
HYDRA-T
1 62692U 25009CM  26015.21500653  .00436983  00000-0  20450-2 0  9993
2 62692  97.3751 104.8615 0005805 293.0813  66.9844 15.82098409 56046
JINJUSat 1B
1 63210U 25052A   26015.26444887  .00010698  00000-0  39487-3 0  9991
2 63210  97.4191 272.2385 0001640 284.8994  75.2064 15.27943533 46702
NUSHSAT 1
1 63211U 25052B   26015.62699873  .00011097  00000-0  39386-3 0  9991
2 63211  97.4175 272.7723 0001610 297.1894  62.9182 15.29220183 46771
TEVEL2-4
1 63213U 25052D   26015.51293447  .00011973  00000-0  43485-3 0  9996
2 63213  97.4095 272.1376 0001574 342.8401  17.2786 15.28444101 46740
TEVEL2-5
1 63214U 25052E   26015.52020747  .00011734  00000-0  42744-3 0  9991
2 63214  97.4093 272.1277 0001643 341.9352  18.1829 15.28352718 46741
TEVEL2-6
1 63215U 25052F   26015.13569484  .00009706  00000-0  35473-3 0  9992
2 63215  97.4093 271.7324 0001797 341.5819  18.5355 15.28296479 46686
TEVEL2-1
1 63217U 25052H   26014.59642640  .00009449  00000-0  34928-3 0  9997
2 63217  97.4065 270.9785 0002476 356.2714   3.8506 15.27927403 46593
TEVEL2-3
1 63218U 25052J   26013.67825296  .00010425  00000-0  38491-3 0  9991
2 63218  97.4069 270.0739 0002672   0.0279   0.0960 15.27937740 46459
TEVEL2-2
1 63219U 25052K   26015.25205337  .00011266  00000-0  41561-3 0  9992
2 63219  97.4067 271.6307 0002452 355.4782   4.6434 15.27945326 46699
TEVEL2-9
1 63237U 25052AD  26015.64208211  .00009813  00000-0  37973-3 0  9996
2 63237  97.4134 271.6747 0006362 341.1562  18.9440 15.26384336 46719
TEVEL2-7
1 63238U 25052AE  26015.65960470  .00009859  00000-0  38349-3 0  9998
2 63238  97.4131 271.6583 0006480 341.3096  18.7904 15.26209302 46712
TEVEL2-8
1 63239U 25052AF  26015.66580624  .00009624  00000-0  37471-3 0  9994
2 63239  97.4135 271.6481 0006443 341.9400  18.1609 15.26184199 46710
HYDRA-W
1 63490U 25052BL  26015.65807417  .00054712  00000-0  10720-2 0  9999
2 63490  97.4040 275.0603 0005544 342.7534  17.3527 15.47188097 46956
HADES-ICM (SO-125)
1 63492U 25052BN  26014.14883604  .00047502  00000-0  10280-2 0  9996
2 63492  97.4050 273.1390 0006804 347.4189  12.6888 15.44299454 46695
Dragonfly
1 65729U 98067XH  26015.27351443  .00350944  56380-4  11780-2 0  9992
2 65729  51.6203 322.1329 0007969 114.7299 245.4537 15.89523578 18466
RSP-03
1 65732U 98067XL  26015.83367752  .00178391  00000-0  90362-3 0  9990
2 65732  51.6252 321.4153 0005814  97.6610 262.5052 15.80455050 18534
GHS-01
1 65733U 98067XM  26015.22187371  .00858841  37858-3  13340-2 0  9990
2 65733  51.6215 320.2725 0007868 133.1453 227.0217 16.03499221 18496
BOTAN
1 65942U 98067XP  26015.26234526  .00126242  00000-0  94096-3 0  9998
2 65942  51.6266 328.8813 0004855 106.9555 253.1976 15.71848963 15124
CEVROSAT1
1 66309U 25248S   26015.61931471  .00002614  00000-0  13736-3 0  9997
2 66309  45.4028 218.6585 0003552 264.4438  95.6043 15.18590529 11307
SPIRONE
1 66657U 25274H   26015.73364839  .00001399  00000-0  14098-3 0  9994
2 66657  97.7411 307.3647 0012800 154.5896 205.5955 14.92675890  7470
K-HERO
1 66660U 25274L   26015.78381888  .00000758  00000-0  77950-4 0  9991
2 66660  97.7418 307.4565 0014502 159.7349 200.4449 14.93167548  7482
SNUGLITE-III DURI
1 66661U 25274M   26015.77929984  .00001124  00000-0  11261-3 0  9996
2 66661  97.7417 307.4611 0015083 160.8684 199.3105 14.93288356  7480
SilverSat
1 66909U 98067XV  26015.28901349  .00066110  00000-0  89451-3 0  9994
2 66909  51.6311 335.0704 0003743  70.5278 289.6118 15.57086287  6838
SAKHACUBE-CHOLBON
1 67290U 25313AU  26015.76547578  .00006190  00000-0  27817-3 0  9995
2 67290  97.4116  92.9485 0010297 165.0831 195.0711 15.21453458  2772
QMR-KWT
1 67291U 25313AV  26015.76500526  .00006860  00000-0  30737-3 0  9997
2 67291  97.4115  92.9492 0010199 165.0999 195.0540 15.21514456  2772
IO-86
1 40931U          25360.30710720  .00000000  00000-0  12800-3 0    00
2 40931   6.0006 332.5373 0012733 338.8432   8.1437 14.79075515    01
